Location: Claremont
(33.9858°S, 18.4575°E)
Time: 23:28:48
(UTC+00:00)

deb Transit VC - Pass Details

Date: 03 October 2021
Orbit: 840 x 909 km, 90.5° (Epoch: 20 October)

Event Time Altitude Azimuth Distance (km) Brightness Sun altitude
Rises 03:27:40 0° 164° (SSE) 3,431 ? -11.6°
Reaches altitude 10° 03:30:24 10° 152° (SSE) 2,493 ? -11.1°
Maximum altitude 03:35:11 29° 93° (E) 1,540 ? -10.1°
Drops below altitude 10° 03:39:57 10° 35° (NE) 2,494 ? -9.1°
Sets 03:42:40 0° 23° (NNE) 3,432 ? -8.6°
